When you browse on this site, cookies collect data to enhance your experience and personalize the content and advertising you see.
Visit our Privacy Policy to learn more. By continuing to use the site, you agree to this use of cookies and data.
  • Em Portugal
  • Lista de países
  • Para 7 dias
  • Temperatura da água
  • Mapa do tempo
  • Widgets de tempo
  • user-avatar
    Iniciar Sessão

    Previsão horária em Belize

    Hoje, 31 Maio, Domingo

    Tempo Temperatura Precipitação Vento Pressão Humidade
    00:00 +26°C° 2.1 mm 6 m/s 757 mmHg 98%
    01:00 +26°C° 1.4 mm 6 m/s 757 mmHg 98%
    02:00 +26°C° 1.4 mm 5 m/s 756 mmHg 99%
    03:00 +26°C° 1.4 mm 5 m/s 756 mmHg 99%
    04:00 +26°C° 1.6 mm 5 m/s 756 mmHg 99%
    05:00 +26°C° 1.6 mm 6 m/s 757 mmHg 99%
    06:00 +26°C° 1.6 mm 6 m/s 757 mmHg 99%
    07:00 +26°C° 1.3 mm 5 m/s 757 mmHg 98%
    08:00 +27°C° 1.3 mm 5 m/s 758 mmHg 98%
    09:00 +27°C° 1.3 mm 5 m/s 758 mmHg 97%
    10:00 +27°C° 1 mm 5 m/s 758 mmHg 97%
    11:00 +27°C° 1 mm 5 m/s 758 mmHg 97%
    12:00 +28°C° 1 mm 5 m/s 758 mmHg 97%
    13:00 +27°C° 2.3 mm 5 m/s 757 mmHg 97%
    14:00 +27°C° 2.3 mm 5 m/s 757 mmHg 98%
    15:00 +26°C° 2.3 mm 4 m/s 756 mmHg 98%
    16:00 +26°C° 1.6 mm 4 m/s 756 mmHg 98%
    17:00 +26°C° 1.6 mm 4 m/s 757 mmHg 98%
    18:00 +26°C° 1.6 mm 3 m/s 757 mmHg 98%
    19:00 +26°C° 2.6 mm 4 m/s 757 mmHg 98%
    20:00 +26°C° 2.6 mm 4 m/s 757 mmHg 99%
    21:00 +26°C° 2.6 mm 4 m/s 758 mmHg 99%
    22:00 +26°C° 2.6 mm 5 m/s 758 mmHg 99%
    23:00 +25°C° 2.6 mm 5 m/s 757 mmHg 99%

    Amanhã, 1 Junho, Segunda-feira

    Tempo Temperatura Precipitação Vento Pressão Humidade
    00:00 +24°C° 2.6 mm 6 m/s 757 mmHg 99%
    01:00 +24°C° 3.2 mm 6 m/s 757 mmHg 99%
    02:00 +24°C° 3.2 mm 6 m/s 757 mmHg 99%
    03:00 +24°C° 3.2 mm 6 m/s 756 mmHg 99%
    04:00 +25°C° 1.4 mm 5 m/s 757 mmHg 99%
    05:00 +25°C° 1.4 mm 5 m/s 757 mmHg 99%
    06:00 +25°C° 1.4 mm 5 m/s 757 mmHg 99%
    07:00 +26°C° 1.3 mm 4 m/s 757 mmHg 98%
    08:00 +26°C° 1.3 mm 4 m/s 758 mmHg 96%
    09:00 +27°C° 1.3 mm 4 m/s 758 mmHg 95%
    10:00 +28°C° 1.4 mm 4 m/s 758 mmHg 94%
    11:00 +29°C° 1.4 mm 4 m/s 758 mmHg 94%
    12:00 +29°C° 1.4 mm 4 m/s 757 mmHg 93%
    13:00 +29°C° 0.7 mm 5 m/s 757 mmHg 93%
    14:00 +29°C° 0.7 mm 5 m/s 757 mmHg 93%
    15:00 +29°C° 0.7 mm 6 m/s 756 mmHg 93%
    16:00 +29°C° 1.6 mm 6 m/s 756 mmHg 93%
    17:00 +28°C° 1.6 mm 6 m/s 756 mmHg 94%
    18:00 +28°C° 1.6 mm 7 m/s 756 mmHg 94%
    19:00 +27°C° 2.5 mm 7 m/s 757 mmHg 94%
    20:00 +27°C° 2.5 mm 8 m/s 757 mmHg 95%
    21:00 +27°C° 2.5 mm 8 m/s 758 mmHg 95%
    22:00 +27°C° 1.7 mm 8 m/s 758 mmHg 96%
    23:00 +27°C° 1.7 mm 9 m/s 758 mmHg 97%

    Depois de amanhã, 2 Junho, Terça-feira

    Tempo Temperatura Precipitação Vento Pressão Humidade
    00:00 +26°C° 1.7 mm 9 m/s 758 mmHg 98%
    01:00 +26°C° 1.5 mm 9 m/s 758 mmHg 98%
    02:00 +26°C° 1.5 mm 9 m/s 757 mmHg 98%
    03:00 +26°C° 1.5 mm 8 m/s 757 mmHg 98%
    04:00 +26°C° 1.1 mm 8 m/s 757 mmHg 98%
    05:00 +26°C° 1.1 mm 8 m/s 757 mmHg 98%
    06:00 +26°C° 1.1 mm 8 m/s 757 mmHg 98%
    07:00 +27°C° 2.7 mm 8 m/s 757 mmHg 97%
    08:00 +27°C° 2.7 mm 9 m/s 757 mmHg 95%
    09:00 +28°C° 2.7 mm 9 m/s 758 mmHg 94%
    10:00 +29°C° 2.3 mm 9 m/s 757 mmHg 89%
    11:00 +31°C° 2.3 mm 9 m/s 757 mmHg 83%
    12:00 +32°C° 2.3 mm 8 m/s 757 mmHg 77%
    13:00 +32°C° 0.4 mm 8 m/s 756 mmHg 77%
    14:00 +32°C° 0.4 mm 8 m/s 756 mmHg 78%
    15:00 +32°C° 0.4 mm 8 m/s 756 mmHg 78%
    16:00 +31°C° 0.3 mm 8 m/s 756 mmHg 80%
    17:00 +31°C° 0.3 mm 8 m/s 756 mmHg 83%
    18:00 +29°C° 0.3 mm 8 m/s 756 mmHg 85%
    19:00 +28°C° 1.8 mm 8 m/s 756 mmHg 89%
    20:00 +28°C° 1.8 mm 9 m/s 757 mmHg 93%
    21:00 +27°C° 1.8 mm 10 m/s 757 mmHg 97%
    22:00 +27°C° 2.3 mm 9 m/s 757 mmHg 97%
    23:00 +27°C° 2.3 mm 8 m/s 757 mmHg 97%

    3 Junho, Quarta-feira

    Tempo Temperatura Precipitação Vento Pressão Humidade
    00:00 +27°C° 2.3 mm 8 m/s 757 mmHg 97%
    01:00 +27°C° 3.8 mm 7 m/s 757 mmHg 97%
    02:00 +26°C° 3.8 mm 7 m/s 756 mmHg 97%
    03:00 +26°C° 3.8 mm 6 m/s 756 mmHg 98%
    04:00 +26°C° 2.2 mm 7 m/s 756 mmHg 98%
    05:00 +26°C° 2.2 mm 7 m/s 756 mmHg 98%
    06:00 +26°C° 2.2 mm 7 m/s 756 mmHg 98%
    07:00 +27°C° 0.6 mm 8 m/s 757 mmHg 96%
    08:00 +27°C° 0.6 mm 8 m/s 757 mmHg 95%
    09:00 +27°C° 0.6 mm 8 m/s 757 mmHg 93%
    10:00 +28°C° 0.4 mm 8 m/s 757 mmHg 89%
    11:00 +29°C° 0.4 mm 9 m/s 757 mmHg 85%
    12:00 +31°C° 0.4 mm 9 m/s 757 mmHg 81%
    13:00 +29°C° 0.5 mm 9 m/s 756 mmHg 85%
    14:00 +29°C° 0.5 mm 9 m/s 755 mmHg 88%
    15:00 +28°C° 0.5 mm 8 m/s 755 mmHg 92%
    16:00 +28°C° 1.2 mm 9 m/s 755 mmHg 93%
    17:00 +27°C° 1.2 mm 9 m/s 755 mmHg 94%
    18:00 +27°C° 1.2 mm 9 m/s 755 mmHg 96%
    19:00 +27°C° 1.2 mm 9 m/s 755 mmHg 96%
    20:00 +27°C° 1.2 mm 9 m/s 756 mmHg 96%
    21:00 +26°C° 1.2 mm 10 m/s 756 mmHg 96%
    22:00 +26°C° 1 mm 10 m/s 756 mmHg 96%
    23:00 +26°C° 1 mm 10 m/s 756 mmHg 96%

    4 Junho, Quinta-feira

    Tempo Temperatura Precipitação Vento Pressão Humidade
    00:00 +26°C° 1 mm 10 m/s 755 mmHg 96%
    01:00 +26°C° 2.2 mm 10 m/s 755 mmHg 97%
    02:00 +26°C° 2.2 mm 10 m/s 755 mmHg 97%
    03:00 +26°C° 2.2 mm 10 m/s 755 mmHg 97%
    04:00 +26°C° 0.6 mm 9 m/s 755 mmHg 97%
    05:00 +26°C° 0.6 mm 9 m/s 755 mmHg 97%
    06:00 +26°C° 0.6 mm 8 m/s 755 mmHg 97%
    07:00 +26°C° 0.1 mm 7 m/s 756 mmHg 96%
    08:00 +26°C° 0.1 mm 7 m/s 756 mmHg 95%
    09:00 +27°C° 0.1 mm 6 m/s 757 mmHg 93%
    10:00 +27°C° 0.6 mm 6 m/s 756 mmHg 91%
    11:00 +28°C° 0.6 mm 6 m/s 756 mmHg 89%
    12:00 +28°C° 0.6 mm 6 m/s 756 mmHg 86%
    13:00 +30°C° 0.2 mm 6 m/s 755 mmHg 78%
    14:00 +32°C° 0.2 mm 6 m/s 755 mmHg 70%
    15:00 +33°C° 0.2 mm 6 m/s 754 mmHg 61%
    16:00 +32°C° 0.4 mm 6 m/s 754 mmHg 68%
    17:00 +30°C° 0.4 mm 7 m/s 754 mmHg 75%
    18:00 +28°C° 0.4 mm 7 m/s 755 mmHg 82%
    19:00 +28°C° 1.3 mm 7 m/s 755 mmHg 87%
    20:00 +27°C° 1.3 mm 8 m/s 755 mmHg 92%
    21:00 +27°C° 1.3 mm 8 m/s 756 mmHg 98%
    22:00 +26°C° 2.5 mm 8 m/s 756 mmHg 98%
    23:00 +26°C° 2.5 mm 8 m/s 756 mmHg 98%

    5 Junho, Sexta-feira

    Tempo Temperatura Precipitação Vento Pressão Humidade
    00:00 +26°C° 2.5 mm 9 m/s 756 mmHg 98%
    01:00 +24°C° 2.7 mm 8 m/s 756 mmHg 97%
    02:00 +24°C° 2.7 mm 8 m/s 755 mmHg 97%
    03:00 +23°C° 2.7 mm 8 m/s 755 mmHg 97%
    04:00 +23°C° 0.6 mm 8 m/s 755 mmHg 97%
    05:00 +23°C° 0.6 mm 8 m/s 756 mmHg 97%
    06:00 +23°C° 0.6 mm 8 m/s 756 mmHg 97%
    07:00 +23°C° 0.4 mm 6 m/s 756 mmHg 96%
    08:00 +25°C° 0.4 mm 4 m/s 757 mmHg 94%
    09:00 +26°C° 0.4 mm 3 m/s 757 mmHg 93%
    10:00 +25°C° 1.4 mm 2 m/s 757 mmHg 94%
    11:00 +25°C° 1.4 mm 2 m/s 757 mmHg 96%
    12:00 +25°C° 1.4 mm 2 m/s 757 mmHg 98%
    13:00 +26°C° 0.1 mm 3 m/s 756 mmHg 94%
    14:00 +27°C° 0.1 mm 3 m/s 756 mmHg 91%
    15:00 +28°C° 0.1 mm 4 m/s 755 mmHg 87%
    16:00 +27°C° 0.8 mm 4 m/s 755 mmHg 91%
    17:00 +26°C° 0.8 mm 4 m/s 755 mmHg 94%
    18:00 +25°C° 0.8 mm 4 m/s 755 mmHg 98%
    19:00 +25°C° 1.9 mm 5 m/s 756 mmHg 98%
    20:00 +24°C° 1.9 mm 6 m/s 756 mmHg 99%
    21:00 +26°C° 1.9 mm 6 m/s 756 mmHg 99%
    22:00 +26°C° 3 mm 7 m/s 756 mmHg 99%
    23:00 +26°C° 3 mm 8 m/s 756 mmHg 99%
    Mostrar mais